When you browse on this site, cookies collect data to enhance your experience and personalize the content and advertising you see.
Visit our Privacy Policy to learn more. By continuing to use the site, you agree to this use of cookies and data.
  • In Hungary
  • List of Countries
  • For 7 days
  • Water Temperature
  • Satellite Maps
  • Weather Map
  • News
  • Weather Widgets
  • user-avatar
    Login

    Hourly Weather Paicandu

    Today, 17 January, Thursday

    Time Temperature Precipitation Wind Pressure Humidity
    00:00 +26°C° 0.1 mm 2 mps 720 mmHg 85%
    01:00 +26°C° 0 mm 2 mps 720 mmHg 87%
    02:00 +25°C° 0 mm 2 mps 720 mmHg 88%
    03:00 +25°C° 0 mm 2 mps 719 mmHg 90%
    04:00 +25°C° 0 mm 1 mps 719 mmHg 91%
    05:00 +24°C° 0 mm 1 mps 719 mmHg 91%
    06:00 +24°C° 0 mm 1 mps 719 mmHg 92%
    07:00 +26°C° 0.7 mm 1 mps 720 mmHg 87%
    08:00 +28°C° 0.7 mm 1 mps 720 mmHg 82%
    09:00 +30°C° 0.7 mm 1 mps 721 mmHg 77%
    10:00 +30°C° 1.8 mm 2 mps 721 mmHg 74%
    11:00 +31°C° 1.8 mm 2 mps 721 mmHg 72%
    12:00 +32°C° 1.8 mm 2 mps 721 mmHg 70%
    13:00 +32°C° 0.1 mm 1 mps 721 mmHg 65%
    14:00 +33°C° 0.1 mm 1 mps 720 mmHg 60%
    15:00 +34°C° 0.1 mm 1 mps 720 mmHg 55%
    16:00 +31°C° 0 mm 0 mps 720 mmHg 59%
    17:00 +31°C° 0 mm 0 mps 719 mmHg 63%
    18:00 +31°C° 0 mm 0 mps 719 mmHg 68%
    19:00 +29°C° 0 mm 0 mps 719 mmHg 70%
    20:00 +27°C° 0 mm 0 mps 719 mmHg 72%
    21:00 +25°C° 0 mm 0 mps 719 mmHg 74%
    22:00 +27°C° 0 mm 1 mps 719 mmHg 76%
    23:00 +26°C° 0 mm 1 mps 719 mmHg 77%

    Tomorrow, 18 January, Friday

    Time Temperature Precipitation Wind Pressure Humidity
    00:00 +26°C° 0 mm 1 mps 719 mmHg 79%
    01:00 +26°C° 0.6 mm 2 mps 719 mmHg 83%
    02:00 +25°C° 0.6 mm 2 mps 719 mmHg 87%
    03:00 +24°C° 0.6 mm 2 mps 718 mmHg 91%
    04:00 +24°C° 0 mm 2 mps 718 mmHg 91%
    05:00 +24°C° 0 mm 2 mps 718 mmHg 91%
    06:00 +24°C° 0 mm 2 mps 718 mmHg 92%
    07:00 +25°C° 0 mm 2 mps 719 mmHg 88%
    08:00 +26°C° 0 mm 2 mps 719 mmHg 84%
    09:00 +28°C° 0 mm 2 mps 720 mmHg 80%
    10:00 +29°C° 0.1 mm 2 mps 720 mmHg 74%
    11:00 +31°C° 0.1 mm 2 mps 720 mmHg 68%
    12:00 +33°C° 0.1 mm 3 mps 720 mmHg 62%
    13:00 +33°C° 0.9 mm 3 mps 719 mmHg 66%
    14:00 +33°C° 0.9 mm 3 mps 719 mmHg 69%
    15:00 +33°C° 0.9 mm 3 mps 718 mmHg 73%
    16:00 +31°C° 0.6 mm 3 mps 718 mmHg 74%
    17:00 +31°C° 0.6 mm 2 mps 718 mmHg 74%
    18:00 +31°C° 0.6 mm 1 mps 717 mmHg 75%
    19:00 +30°C° 0.4 mm 1 mps 717 mmHg 78%
    20:00 +28°C° 0.4 mm 1 mps 717 mmHg 81%
    21:00 +27°C° 0.4 mm 1 mps 717 mmHg 83%
    22:00 +26°C° 0.7 mm 1 mps 718 mmHg 86%
    23:00 +26°C° 0.7 mm 1 mps 718 mmHg 88%

    Day after tomorrow, 19 January, Saturday

    Time Temperature Precipitation Wind Pressure Humidity
    00:00 +25°C° 0.7 mm 2 mps 718 mmHg 90%
    01:00 +25°C° 0.3 mm 2 mps 718 mmHg 91%
    02:00 +25°C° 0.3 mm 2 mps 717 mmHg 92%
    03:00 +24°C° 0.3 mm 2 mps 717 mmHg 92%
    04:00 +24°C° 0.1 mm 2 mps 717 mmHg 92%
    05:00 +24°C° 0.1 mm 2 mps 717 mmHg 92%
    06:00 +23°C° 0.1 mm 2 mps 717 mmHg 92%
    07:00 +25°C° 0 mm 2 mps 718 mmHg 88%
    08:00 +26°C° 0 mm 2 mps 718 mmHg 84%
    09:00 +27°C° 0 mm 2 mps 719 mmHg 81%
    10:00 +29°C° 0 mm 2 mps 719 mmHg 74%
    11:00 +30°C° 0 mm 2 mps 719 mmHg 68%
    12:00 +32°C° 0 mm 2 mps 719 mmHg 62%
    13:00 +32°C° 0 mm 2 mps 718 mmHg 61%
    14:00 +32°C° 0 mm 2 mps 718 mmHg 59%
    15:00 +34°C° 0 mm 2 mps 717 mmHg 58%
    16:00 +32°C° 0.1 mm 2 mps 717 mmHg 63%
    17:00 +32°C° 0.1 mm 2 mps 717 mmHg 68%
    18:00 +31°C° 0.1 mm 2 mps 717 mmHg 73%
    19:00 +29°C° 1.5 mm 2 mps 717 mmHg 78%
    20:00 +27°C° 1.5 mm 1 mps 717 mmHg 84%
    21:00 +26°C° 1.5 mm 1 mps 717 mmHg 89%
    22:00 +25°C° 0.1 mm 1 mps 717 mmHg 89%
    23:00 +25°C° 0.1 mm 1 mps 717 mmHg 90%

    20 January, Sunday

    Time Temperature Precipitation Wind Pressure Humidity
    00:00 +25°C° 0.1 mm 1 mps 718 mmHg 91%
    01:00 +25°C° 0 mm 1 mps 717 mmHg 91%
    02:00 +24°C° 0 mm 1 mps 717 mmHg 91%
    03:00 +24°C° 0 mm 1 mps 716 mmHg 91%
    04:00 +24°C° 0 mm 1 mps 716 mmHg 90%
    05:00 +24°C° 0 mm 2 mps 717 mmHg 90%
    06:00 +24°C° 0 mm 2 mps 717 mmHg 90%
    07:00 +25°C° 0 mm 2 mps 718 mmHg 86%
    08:00 +26°C° 0 mm 3 mps 718 mmHg 83%
    09:00 +27°C° 0 mm 3 mps 719 mmHg 79%
    10:00 +29°C° 0.7 mm 3 mps 719 mmHg 76%
    11:00 +30°C° 0.7 mm 3 mps 719 mmHg 73%
    12:00 +32°C° 0.7 mm 4 mps 719 mmHg 70%
    13:00 +31°C° 0.8 mm 3 mps 718 mmHg 69%
    14:00 +33°C° 0.8 mm 3 mps 718 mmHg 69%
    15:00 +33°C° 0.8 mm 3 mps 717 mmHg 68%
    16:00 +31°C° 0.7 mm 2 mps 717 mmHg 72%
    17:00 +31°C° 0.7 mm 2 mps 717 mmHg 75%
    18:00 +31°C° 0.7 mm 1 mps 717 mmHg 78%
    19:00 +29°C° 0.9 mm 1 mps 717 mmHg 81%
    20:00 +27°C° 0.9 mm 1 mps 717 mmHg 85%
    21:00 +26°C° 0.9 mm 1 mps 717 mmHg 88%
    22:00 +26°C° 0 mm 2 mps 717 mmHg 89%
    23:00 +25°C° 0 mm 2 mps 717 mmHg 89%

    21 January, Monday

    Time Temperature Precipitation Wind Pressure Humidity
    00:00 +25°C° 0 mm 2 mps 718 mmHg 90%
    01:00 +24°C° 0.3 mm 2 mps 717 mmHg 91%
    02:00 +24°C° 0.3 mm 2 mps 717 mmHg 91%
    03:00 +24°C° 0.3 mm 2 mps 717 mmHg 92%
    04:00 +24°C° 0.2 mm 2 mps 717 mmHg 93%
    05:00 +24°C° 0.2 mm 2 mps 717 mmHg 93%
    06:00 +23°C° 0.2 mm 2 mps 717 mmHg 94%
    07:00 +25°C° 0.5 mm 3 mps 718 mmHg 89%
    08:00 +27°C° 0.5 mm 3 mps 718 mmHg 83%
    09:00 +29°C° 0.5 mm 3 mps 719 mmHg 78%
    10:00 +30°C° 1.8 mm 3 mps 719 mmHg 77%
    11:00 +30°C° 1.8 mm 3 mps 719 mmHg 75%
    12:00 +31°C° 1.8 mm 3 mps 719 mmHg 74%
    13:00 +31°C° 0.9 mm 3 mps 718 mmHg 71%
    14:00 +31°C° 0.9 mm 3 mps 718 mmHg 68%
    15:00 +33°C° 0.9 mm 3 mps 718 mmHg 66%
    16:00 +31°C° 1.3 mm 3 mps 717 mmHg 72%
    17:00 +30°C° 1.3 mm 2 mps 717 mmHg 78%
    18:00 +29°C° 1.3 mm 1 mps 717 mmHg 84%
    19:00 +28°C° 0.1 mm 1 mps 717 mmHg 85%
    20:00 +27°C° 0.1 mm 1 mps 718 mmHg 86%
    21:00 +26°C° 0.1 mm 1 mps 718 mmHg 87%
    22:00 +25°C° 0 mm 1 mps 718 mmHg 88%
    23:00 +25°C° 0 mm 2 mps 718 mmHg 89%

    22 January, Tuesday

    Time Temperature Precipitation Wind Pressure Humidity
    00:00 +25°C° 0 mm 2 mps 718 mmHg 89%
    01:00 +25°C° 0 mm 2 mps 718 mmHg 90%
    02:00 +24°C° 0 mm 2 mps 718 mmHg 90%
    03:00 +24°C° 0 mm 1 mps 717 mmHg 91%
    04:00 +24°C° 0.2 mm 1 mps 718 mmHg 91%
    05:00 +24°C° 0.2 mm 1 mps 718 mmHg 92%
    06:00 +24°C° 0.2 mm 1 mps 718 mmHg 92%
    07:00 +25°C° 1 mm 1 mps 719 mmHg 90%
    08:00 +26°C° 1 mm 1 mps 719 mmHg 88%
    09:00 +27°C° 1 mm 1 mps 719 mmHg 86%
    10:00 +29°C° 1.6 mm 1 mps 719 mmHg 81%
    11:00 +30°C° 1.6 mm 1 mps 719 mmHg 76%
    12:00 +31°C° 1.6 mm 2 mps 719 mmHg 71%
    13:00 +31°C° 0.8 mm 2 mps 719 mmHg 71%
    14:00 +31°C° 0.8 mm 1 mps 718 mmHg 70%
    15:00 +31°C° 0.8 mm 1 mps 718 mmHg 70%
    16:00 +31°C° 0 mm 1 mps 718 mmHg 71%
    17:00 +31°C° 0 mm 1 mps 718 mmHg 73%
    18:00 +29°C° 0 mm 0 mps 717 mmHg 74%
    19:00 +30°C° 0 mm 1 mps 717 mmHg 76%
    20:00 +28°C° 0 mm 1 mps 718 mmHg 78%
    21:00 +27°C° 0 mm 2 mps 718 mmHg 81%
    22:00 +26°C° 0 mm 2 mps 718 mmHg 82%
    23:00 +26°C° 0 mm 2 mps 718 mmHg 84%
    Show more